STARLINK-38060, 69716

Orbit data source: Space-Track

STARLINK-38060, 69716 is a payload satellite owned by SpaceX/Seattle (US) in SSO that was launched on Sun, 28 Jun 2026 UTC via an FALCON 9 launch vehicle from the Air Force Western Test Range (AFWTR). Payload-class satellites include a variety of spacecraft equipped with specific instruments for various scientific and technological missions. These include communications satellites like Starlink; space stations such as the ISS; scientific satellites like the Hubble; Earth observation satellites from companies like Planet Labs, Umbra, and HawkEye 360; GPS; miniature CubeSats for education and research; and military/defense satellites.

Loading next visibility...
Identifier
69716, 2026-147N
Orbit
SSO
Country
Flag of USUS
Related business
Manufacturer
SpaceX/Seattle
Mission
Operational Commercial Communications
Bus & Motor
STARLINK V2MO, Unknown motor
Mass
575 kg wet, ~530 kg dry
Launch date (UTC)
2026-06-28 (2 months ago)
Launch vehicle
FALCON 9
Launch site
Air Force Western Test Range (AFWTR)
Object type
Payload
Rocket body
Debris
Shape & HBR
Box + 1 Pan, 17.7 m
Radar Cross Section
41.120 m², Large (>1 m²)

Expand to show TLE details & history
Last TLE update: 2 days ago

TLE from 2 days ago
0 STARLINK-38060
1 69716U 26147N   26235.83009182  .00012001  00000-0  37342-3 0  9994
2 69716  97.2851 272.5943 0000844 117.4167 242.7162 15.33449541  9998
Epoch: 2026-08-23T19:55Z
TLE epoch observation values (Epoch: 2026-08-23T19:55:19.933Z)
Latitude
0.00002°
Longitude
1.64072°
Altitude
468.907 km
Speed
7.632 km/s
True Right ascension
18h 10m 22s
True Declination
0° 00' 00"
Sunlit
Object was in full shadow at epoch
Visualization orbit readout
Latitude
Unknown
Longitude
Unknown
Altitude
Unknown
Speed
Unknown
Apparent Right ascension
Unknown
Apparent Declination
Unknown
Sunlit
N/A
Visualization observer readout
Local Sidereal Time
00:11:45
Azimuth
Unknown
Elevation
Unknown
Doppler factor
Unknown
Orbital elements
Apogee altitude
463.05 km
Perigee altitude
461.895 km
Semi-major axis
6,840.609 km
Eccentricity
0.00008
Inclination
97.2851°
RAAN
272.5943°
Arg. of periapsis
117.4167°
True anomaly
242.7076°
Mean anomaly
242.7162°
Eccentric anomaly
242.7119°
Mean motion
3.8362 °/min
Orbital period
93.84 mins
BSTAR
0.00037342
Loading maneuver chart data...
Computing Atmospheric mass density...
Loading historical data...
Loading historical data...
Loading historical data...
Loading historical data...
Loading historical data...
Loading historical data...
Loading historical data...

Documentation

Showing up to 5 results
|